Starlink 11174

operational
NORAD ID: 60409 Int'l Des: 2024-141 Owner: SPXS Country: US Constellation: starlink
LEOCIRCULAR

About Starlink 11174

Description loading...

Live Position

Loading 3D Globe...

Upcoming Passes

Altitude History

Altitude vs Time

uPlot chart will show altitude changes over time

Two-Line Element Set

1 60409U 24141M 25258.34551466 .00011716 00000-0 10163-3 0 9997
2 60409 53.1540 230.6007 0001499 79.0250 281.0937 15.69660675 64150
Epoch: Sep 15, 2025 • Age: 30 hours

Current Status

Altitude 378.3 km
Velocity 7.68 km/s
Sub-Earth Point -50.81°S, 101.42°W
Launch Date Aug 10, 2024
Age 1.1 years
Type internet

Technical Details

Classification Payload
Mass 960.00 kg
Dry Mass 910.00 kg
Total Mass 960.00 kg
Length 0.30 m
Diameter 4.10 m
Span 29.00 m
Shape Box + pan
Manufacturer SPXS
Bus Type Starlink V2MD
Phase Status In Orbit
Owner/State SPXS/US

Large Constellations

Loading constellations...